Flag for Germany Past Weather in Buchholz in der Nordheide, Lower Saxony, Germany — Yesterday and Last 2 Weeks

Now
39 °F

Scattered clouds.


Feels Like: 36 °F
Forecast: 33 / 51 °F
Wind: 5 mph from Southwest

Location: Hamburg-Finkenwerder

Current Time: Apr 27, 2017 at 9:21:36 am

Latest Report: Apr 27, 2017 at 8:50 am


Visibility: N/A

Pressure: 29.95 "Hg

Humidity: 87%

Dew Point: 36 °F

Location of Buchholz in der NordheideLocation

Past Weather in Buchholz in der Nordheide — Graph

°F

Buchholz in der Nordheide Temperature Yesterday

Maximum temperature yesterday: 50 °F (at 7:20 pm)
Minimum temperature yesterday: 34 °F (at 6:20 am)
Average temperature yesterday: 44 °F

High & Low Weather Summary for the Past Weeks

 TemperatureHumidityPressure
High57 °F (Apr 21, 12:50 pm)100% (Apr 25, 7:41 am)30.60 "Hg (Apr 25, 7:41 am)
Low30 °F (Apr 19, 5:50 am)40% (Apr 19, 5:20 pm)29.56 "Hg (Apr 25, 8:20 am)
Average45 °F72%30.05 "Hg
* Reported Apr 12 7:20 am — Apr 27 7:50 am, Buchholz in der Nordheide, Weather by CustomWeather, © 2017

Note: Actual official high and low records may vary slightly from our data, if they occured in-between our weather recording intervals... More about our weather records

Advertising

Buchholz in der Nordheide Weather History for the Previous 24 Hours

Scroll right to see more
 ConditionsComfort  
Time TempWeatherWind HumidityBarometerVisibility
7:50 am
Thu, Apr 27
36 °FPassing clouds.6 mph93%29.95 "HgN/A
7:20 am34 °FPassing clouds.6 mph93%29.95 "HgN/A
6:50 am32 °FPassing clouds.5 mph93%29.95 "HgN/A
6:20 am32 °FPassing clouds.3 mph93%29.92 "HgN/A
5:50 am34 °FPassing clouds.5 mph93%29.92 "HgN/A
9:20 pm
Wed, Apr 26
43 °FScattered showers. Passing clouds.5 mph61%29.92 "HgN/A
8:50 pm45 °FScattered showers. Passing clouds.8 mph61%29.92 "HgN/A
7:50 pm46 °FScattered clouds.12 mph57%29.89 "HgN/A
7:20 pm50 °FPassing clouds.8 mph50%29.89 "HgN/A
6:50 pm48 °FSunny.9 mph58%29.89 "Hg10 mi
6:20 pm48 °FPassing clouds.6 mph58%29.89 "HgN/A
5:50 pm48 °FPassing clouds.9 mph54%29.86 "HgN/A
5:20 pm46 °FSprinkles. Passing clouds.10 mph62%29.89 "HgN/A
4:50 pm46 °FSprinkles. Scattered clouds.8 mph62%29.89 "HgN/A
4:20 pm46 °FSprinkles. Scattered clouds.9 mph62%29.89 "HgN/A
3:50 pm46 °FScattered showers. Scattered clouds.12 mph57%29.89 "HgN/A
3:20 pm46 °FSprinkles. Broken clouds.13 mph57%29.86 "HgN/A
2:50 pm46 °FSprinkles. Scattered clouds.2 mph62%29.86 "HgN/A
2:31 pm45 °FScattered showers. Scattered clouds.7 mph66%29.86 "HgN/A
1:50 pm45 °FSprinkles. Scattered clouds.9 mph71%29.86 "HgN/A
1:20 pm48 °FScattered showers. Scattered clouds.8 mph62%29.86 "HgN/A
12:50 pm48 °FScattered showers. Scattered clouds.9 mph54%29.86 "HgN/A
12:20 pm45 °FScattered showers. Scattered clouds.9 mph61%29.86 "HgN/A
11:50 am46 °FBroken clouds.9 mph57%29.86 "HgN/A
11:20 am46 °FScattered clouds.7 mph57%29.86 "HgN/A
10:50 am45 °FScattered clouds.6 mph66%29.83 "HgN/A
10:20 am45 °FScattered clouds.6 mph71%29.83 "HgN/A
9:50 am43 °FPassing clouds.7 mph76%29.83 "HgN/A
9:20 am43 °FPassing clouds.6 mph81%29.83 "HgN/A
Weather by CustomWeather, © 2017

See weather overviewHow to use our weather pages